| time (UTC) | temp F | wind direction | speed knots | gust knots | rain 1hr in | rain 24hr in | rain mn in | humidity % | barometer mb |
| 20260906225020 | 64 | 158 | 0.0 | 7.0 | 0.00 | 0.32 | 0.32 | 84 | 1005.0 |
| 20260906224558 | 63 | 163 | 0.9 | 7.0 | 0.00 | 0.32 | 0.32 | 82 | 1005.0 |
| 20260906224006 | 63 | 313 | 0.0 | 4.3 | 0.00 | 0.32 | 0.32 | 81 | 1005.0 |
| 20260906223521 | 64 | 200 | 0.9 | 7.0 | 0.00 | 0.32 | 0.32 | 83 | 1004.8 |
| 20260906223054 | 64 | 219 | 1.7 | 7.0 | 0.00 | 0.32 | 0.32 | 82 | 1004.9 |
| 20260906222557 | 64 | 311 | 0.0 | 1.7 | 0.00 | 0.32 | 0.32 | 83 | 1004.9 |
| 20260906222003 | 63 | 201 | 0.0 | 1.7 | 0.00 | 0.32 | 0.32 | 85 | 1004.9 |
| 20260906221528 | 63 | 167 | 0.0 | 2.6 | 0.00 | 0.32 | 0.32 | 85 | 1004.9 |
| 20260906221032 | 63 | 167 | 0.0 | 5.2 | 0.00 | 0.32 | 0.32 | 85 | 1004.8 |
| 20260906220542 | 62 | 194 | 0.9 | 5.2 | 0.00 | 0.32 | 0.32 | 84 | 1004.9 |
| 20260906220022 | 62 | 204 | 0.0 | 3.5 | 0.00 | 0.32 | 0.32 | 86 | 1004.8 |
| 20260906215523 | 62 | 92 | 0.0 | 1.7 | 0.00 | 0.32 | 0.32 | 86 | 1004.9 |
| 20260906215030 | 62 | 244 | 0.0 | 1.7 | 0.00 | 0.32 | 0.32 | 87 | 1004.8 |
| 20260906214556 | 62 | 244 | 0.0 | 2.6 | 0.00 | 0.32 | 0.32 | 87 | 1004.7 |
| 20260906214002 | 62 | 245 | 0.0 | 2.6 | 0.00 | 0.32 | 0.32 | 88 | 1004.7 |
| 20260906213515 | 61 | 177 | 0.0 | 2.6 | 0.00 | 0.32 | 0.32 | 88 | 1004.7 |
| 20260906213048 | 62 | 264 | 0.0 | 3.5 | 0.00 | 0.32 | 0.32 | 88 | 1004.7 |
| 20260906212554 | 62 | 264 | 0.0 | 0.0 | 0.00 | 0.32 | 0.32 | 88 | 1004.8 |
| 20260906212104 | 62 | 346 | 0.0 | 0.0 | 0.00 | 0.32 | 0.32 | 88 | 1004.7 |
| 20260906211542 | 62 | 355 | 0.0 | 0.0 | 0.00 | 0.32 | 0.32 | 88 | 1004.7 |
| 20260906211051 | 61 | 360 | 0.0 | 0.0 | 0.00 | 0.32 | 0.32 | 89 | 1004.6 |
| 20260906210553 | 61 | 360 | 0.0 | 4.3 | 0.00 | 0.32 | 0.32 | 88 | 1004.7 |
| 20260906210019 | 61 | 355 | 0.0 | 4.3 | 0.00 | 0.32 | 0.32 | 89 | 1004.6 |
| 20260906205534 | 61 | 34 | 0.9 | 3.5 | 0.00 | 0.32 | 0.32 | 89 | 1004.5 |
| 20260906205043 | 61 | 32 | 0.0 | 3.5 | 0.00 | 0.32 | 0.32 | 88 | 1004.6 |
| 20260906204522 | 61 | 68 | 0.9 | 4.3 | 0.00 | 0.32 | 0.32 | 88 | 1004.6 |
| 20260906204027 | 61 | 63 | 1.7 | 4.3 | 0.00 | 0.32 | 0.32 | 88 | 1004.6 |
| 20260906203537 | 61 | 31 | 1.7 | 3.5 | 0.00 | 0.32 | 0.32 | 88 | 1004.7 |
| 20260906203056 | 61 | 67 | 0.0 | 2.6 | 0.00 | 0.32 | 0.32 | 88 | 1004.6 |
| 20260906202601 | 61 | 126 | 0.9 | 5.2 | 0.00 | 0.32 | 0.32 | 88 | 1004.5 |
| 20260906202005 | 61 | 128 | 0.9 | 5.2 | 0.00 | 0.32 | 0.32 | 88 | 1004.5 |
| 20260906201557 | 61 | 117 | 0.9 | 2.6 | 0.00 | 0.32 | 0.32 | 88 | 1004.5 |
| 20260906201051 | 61 | 117 | 0.9 | 2.6 | 0.00 | 0.32 | 0.32 | 88 | 1004.6 |
| 20260906200555 | 61 | 25 | 0.9 | 2.6 | 0.00 | 0.32 | 0.32 | 89 | 1004.5 |
| 20260906200029 | 61 | 53 | 1.7 | 2.6 | 0.01 | 0.32 | 0.32 | 89 | 1004.5 |
| 20260906195535 | 61 | 273 | 0.0 | 0.0 | 0.01 | 0.32 | 0.32 | 89 | 1004.5 |
| 20260906195043 | 60 | 273 | 0.0 | 0.9 | 0.01 | 0.32 | 0.32 | 89 | 1004.4 |
| 20260906194517 | 61 | 273 | 0.0 | 2.6 | 0.02 | 0.32 | 0.32 | 90 | 1004.4 |
| 20260906194027 | 60 | 271 | 0.0 | 2.6 | 0.02 | 0.32 | 0.32 | 90 | 1004.5 |
| 20260906193539 | 60 | 271 | 0.9 | 2.6 | 0.02 | 0.32 | 0.32 | 90 | 1004.5 |
| 20260906193104 | 60 | 269 | 0.9 | 2.6 | 0.03 | 0.32 | 0.32 | 89 | 1004.4 |
| 20260906192506 | 59 | 269 | 0.0 | 2.6 | 0.03 | 0.32 | 0.32 | 90 | 1004.4 |
| 20260906192011 | 59 | 244 | 0.0 | 0.0 | 0.04 | 0.32 | 0.32 | 90 | 1004.4 |
| 20260906191545 | 59 | 244 | 0.0 | 0.0 | 0.04 | 0.32 | 0.32 | 90 | 1004.4 |
| 20260906191050 | 59 | 244 | 0.0 | 0.9 | 0.04 | 0.32 | 0.32 | 90 | 1004.5 |
| 20260906190557 | 58 | 244 | 0.0 | 2.6 | 0.05 | 0.32 | 0.32 | 90 | 1004.5 |
| 20260906190034 | 58 | 244 | 0.0 | 2.6 | 0.04 | 0.31 | 0.31 | 90 | 1004.6 |
| 20260906185537 | 58 | 241 | 0.0 | 2.6 | 0.05 | 0.31 | 0.31 | 90 | 1004.7 |
| 20260906185044 | 57 | 231 | 0.0 | 0.0 | 0.05 | 0.31 | 0.31 | 90 | 1004.6 |
| 20260906184503 | 57 | 98 | 0.0 | 0.0 | 0.05 | 0.30 | 0.30 | 90 | 1004.6 |
| 20260906184020 | 57 | 96 | 0.0 | 0.0 | 0.05 | 0.30 | 0.30 | 90 | 1004.7 |
| 20260906183531 | 57 | 96 | 0.0 | 0.0 | 0.05 | 0.30 | 0.30 | 90 | 1004.6 |
| 20260906183059 | 57 | 96 | 0.0 | 0.0 | 0.05 | 0.28 | 0.28 | 90 | 1004.8 |
| 20260906182559 | 57 | 96 | 0.0 | 0.0 | 0.05 | 0.28 | 0.28 | 90 | 1004.6 |
| 20260906182003 | 57 | 96 | 0.0 | 0.0 | 0.05 | 0.28 | 0.28 | 90 | 1004.7 |
| 20260906181542 | 57 | 96 | 0.0 | 0.0 | 0.06 | 0.28 | 0.28 | 90 | 1004.7 |
| 20260906181043 | 57 | 95 | 0.0 | 0.0 | 0.06 | 0.28 | 0.28 | 90 | 1004.6 |
| 20260906180551 | 57 | 95 | 0.0 | 0.0 | 0.06 | 0.27 | 0.27 | 90 | 1004.7 |
| 20260906180024 | 57 | 95 | 0.0 | 0.0 | 0.07 | 0.27 | 0.27 | 90 | 1004.6 |
| 20260906175525 | 57 | 95 | 0.0 | 0.0 | 0.06 | 0.26 | 0.26 | 90 | 1004.6 |
| 20260906175033 | 57 | 95 | 0.0 | 0.0 | 0.07 | 0.26 | 0.26 | 90 | 1004.6 |
| 20260906174601 | 57 | 95 | 0.0 | 0.0 | 0.06 | 0.25 | 0.25 | 90 | 1004.6 |
| 20260906174104 | 57 | 95 | 0.0 | 0.0 | 0.07 | 0.25 | 0.25 | 90 | 1004.5 |
| 20260906173606 | 57 | 94 | 0.0 | 0.0 | 0.07 | 0.25 | 0.25 | 90 | 1004.4 |
| 20260906173047 | 57 | 94 | 0.0 | 2.6 | 0.07 | 0.24 | 0.24 | 90 | 1004.4 |
| 20260906172547 | 57 | 94 | 0.0 | 2.6 | 0.07 | 0.24 | 0.24 | 90 | 1004.4 |
| 20260906172047 | 57 | 90 | 0.0 | 0.9 | 0.06 | 0.23 | 0.23 | 90 | 1004.3 |
| 20260906171515 | 57 | 91 | 0.0 | 2.6 | 0.06 | 0.22 | 0.22 | 90 | 1004.3 |
| 20260906171028 | 57 | 91 | 0.0 | 1.7 | 0.06 | 0.22 | 0.22 | 90 | 1004.3 |
| 20260906170525 | 57 | 187 | 0.0 | 0.0 | 0.05 | 0.21 | 0.21 | 90 | 1004.2 |
| 20260906170055 | 57 | 190 | 0.0 | 0.0 | 0.05 | 0.20 | 0.20 | 90 | 1004.1 |
| 20260906165502 | 57 | 190 | 0.0 | 0.0 | 0.05 | 0.20 | 0.20 | 90 | 1004.1 |
| 20260906165112 | 56 | 190 | 0.0 | 0.0 | 0.05 | 0.19 | 0.19 | 90 | 1004.1 |
| 20260906164535 | 56 | 190 | 0.0 | 0.0 | 0.05 | 0.19 | 0.19 | 90 | 1004.0 |
| 20260906164046 | 56 | 190 | 0.0 | 0.0 | 0.05 | 0.18 | 0.18 | 90 | 1004.0 |
| 20260906163555 | 56 | 190 | 0.0 | 0.0 | 0.06 | 0.18 | 0.18 | 89 | 1004.0 |
| 20260906163013 | 56 | 190 | 0.0 | 0.0 | 0.05 | 0.17 | 0.17 | 89 | 1003.9 |
| 20260906162530 | 56 | 190 | 0.0 | 0.0 | 0.05 | 0.17 | 0.17 | 89 | 1003.9 |
| 20260906162041 | 56 | 190 | 0.0 | 0.0 | 0.06 | 0.17 | 0.17 | 89 | 1003.9 |
| 20260906161503 | 56 | 190 | 0.0 | 0.0 | 0.05 | 0.16 | 0.16 | 89 | 1004.0 |
| 20260906161008 | 56 | 190 | 0.0 | 0.0 | 0.05 | 0.16 | 0.16 | 89 | 1004.0 |
| 20260906160515 | 56 | 190 | 0.0 | 0.0 | 0.06 | 0.16 | 0.16 | 89 | 1003.9 |
| 20260906160054 | 56 | 190 | 0.0 | 0.0 | 0.06 | 0.15 | 0.15 | 89 | 1004.0 |
| 20260906155552 | 56 | 190 | 0.0 | 0.0 | 0.07 | 0.15 | 0.15 | 89 | 1003.9 |
| 20260906155058 | 56 | 190 | 0.0 | 0.0 | 0.06 | 0.14 | 0.14 | 89 | 1003.9 |
| 20260906154536 | 56 | 190 | 0.0 | 0.0 | 0.07 | 0.14 | 0.14 | 89 | 1004.0 |
| 20260906154037 | 56 | 190 | 0.0 | 0.0 | 0.07 | 0.13 | 0.13 | 89 | 1004.0 |
| 20260906153544 | 56 | 190 | 0.0 | 0.0 | 0.06 | 0.12 | 0.12 | 89 | 1003.9 |
| 20260906153027 | 56 | 190 | 0.0 | 0.0 | 0.07 | 0.12 | 0.12 | 89 | 1004.0 |
| 20260906152514 | 56 | 190 | 0.0 | 0.0 | 0.07 | 0.12 | 0.12 | 89 | 1003.9 |
| 20260906152019 | 56 | 190 | 0.0 | 0.0 | 0.07 | 0.11 | 0.11 | 89 | 1004.0 |
| 20260906151559 | 56 | 190 | 0.0 | 0.0 | 0.07 | 0.11 | 0.11 | 89 | 1003.8 |
| 20260906151101 | 56 | 190 | 0.0 | 0.0 | 0.08 | 0.11 | 0.11 | 89 | 1003.8 |
| 20260906150604 | 56 | 190 | 0.0 | 0.0 | 0.07 | 0.10 | 0.10 | 89 | 1003.6 |
| 20260906150037 | 56 | 190 | 0.0 | 0.0 | 0.06 | 0.09 | 0.09 | 89 | 1003.6 |
| 20260906145542 | 56 | 190 | 0.0 | 0.0 | 0.06 | 0.08 | 0.09 | 88 | 1003.7 |
| 20260906145050 | 56 | 190 | 0.0 | 0.0 | 0.06 | 0.08 | 0.08 | 88 | 1003.6 |
| 20260906144519 | 56 | 190 | 0.0 | 0.0 | 0.06 | 0.07 | 0.07 | 88 | 1003.7 |
| 20260906144024 | 56 | 190 | 0.0 | 0.0 | 0.05 | 0.06 | 0.06 | 88 | 1003.6 |
| 20260906143535 | 56 | 190 | 0.0 | 0.0 | 0.05 | 0.06 | 0.06 | 88 | 1003.7 |
| 20260906143046 | 56 | 190 | 0.0 | 0.0 | 0.04 | 0.05 | 0.05 | 88 | 1003.5 |
| 20260906142554 | 56 | 190 | 0.0 | 0.0 | 0.03 | 0.04 | 0.05 | 88 | 1003.5 |
| 20260906142101 | 56 | 190 | 0.0 | 0.0 | 0.03 | 0.04 | 0.04 | 88 | 1003.5 |
| 20260906141529 | 56 | 190 | 0.0 | 0.0 | 0.03 | 0.04 | 0.04 | 88 | 1003.4 |
| 20260906141037 | 56 | 190 | 0.0 | 0.0 | 0.02 | 0.03 | 0.03 | 88 | 1003.4 |
| 20260906140546 | 56 | 190 | 0.0 | 0.0 | 0.02 | 0.03 | 0.03 | 88 | 1003.3 |
| 20260906140035 | 56 | 190 | 0.0 | 0.0 | 0.02 | 0.03 | 0.03 | 87 | 1003.2 |
| 20260906135519 | 56 | 190 | 0.0 | 0.0 | 0.01 | 0.02 | 0.02 | 87 | 1003.1 |
| 20260906135026 | 56 | 190 | 0.0 | 0.0 | 0.01 | 0.02 | 0.02 | 87 | 1003.0 |
| 20260906134555 | 56 | 190 | 0.0 | 0.0 | 0.00 | 0.01 | 0.01 | 87 | 1003.0 |
| 20260906134101 | 56 | 190 | 0.0 | 0.0 | 0.00 | 0.01 | 0.01 | 87 | 1002.9 |
| 20260906133502 | 56 | 190 | 0.0 | 0.9 | 0.01 | 0.01 | 0.01 | 87 | 1002.8 |
| 20260906133026 | 56 | 190 | 0.0 | 1.7 | 0.01 | 0.01 | 0.01 | 87 | 1002.9 |
| 20260906132532 | 56 | 190 | 0.9 | 1.7 | 0.01 | 0.01 | 0.01 | 87 | 1002.8 |
| 20260906132040 | 56 | 190 | 0.9 | 1.7 | 0.01 | 0.01 | 0.01 | 87 | 1002.8 |
| 20260906131508 | 56 | 190 | 0.0 | 1.7 | 0.01 | 0.01 | 0.01 | 87 | 1002.8 |
| 20260906131025 | 56 | 190 | 0.9 | 1.7 | 0.01 | 0.01 | 0.01 | 86 | 1002.8 |
| 20260906130529 | 56 | 190 | 0.0 | 1.7 | 0.01 | 0.01 | 0.01 | 86 | 1002.8 |
| 20260906130110 | 56 | 190 | 0.0 | 1.7 | 0.01 | 0.01 | 0.01 | 86 | 1002.9 |
| 20260906125501 | 57 | 190 | 0.9 | 1.7 | 0.01 | 0.01 | 0.01 | 86 | 1002.8 |
| 20260906125104 | 57 | 190 | 0.0 | 1.7 | 0.01 | 0.01 | 0.01 | 86 | 1002.9 |
| 20260906124545 | 57 | 190 | 0.9 | 1.7 | 0.01 | 0.01 | 0.01 | 86 | 1002.9 |
| 20260906124051 | 57 | 188 | 0.0 | 1.7 | 0.01 | 0.01 | 0.01 | 85 | 1002.9 |
| 20260906123601 | 57 | 188 | 0.0 | 1.7 | 0.01 | 0.01 | 0.01 | 85 | 1002.9 |
| 20260906123038 | 57 | 188 | 0.0 | 1.7 | 0.00 | 0.00 | 0.00 | 85 | 1003.0 |
| 20260906122538 | 57 | 188 | 0.0 | 2.6 | 0.00 | 0.00 | 0.00 | 85 | 1003.1 |
| 20260906122045 | 57 | 188 | 0.9 | 2.6 | 0.00 | 0.00 | 0.00 | 85 | 1003.0 |
| 20260906121509 | 57 | 188 | 0.0 | 1.7 | 0.00 | 0.00 | 0.00 | 85 | 1003.0 |
| 20260906121018 | 57 | 188 | 0.0 | 2.6 | 0.00 | 0.00 | 0.00 | 85 | 1003.0 |
| 20260906120539 | 56 | 188 | 0.0 | 2.6 | 0.00 | 0.00 | 0.00 | 85 | 1003.1 |
| 20260906115508 | 56 | 159 | 0.9 | 2.6 | 0.00 | 0.00 | 0.00 | 85 | 1003.1 |
| 20260906115019 | 56 | 158 | 0.0 | 1.7 | 0.00 | 0.00 | 0.00 | 85 | 1003.1 |
| 20260906114558 | 56 | 158 | 0.0 | 2.6 | 0.00 | 0.00 | 0.00 | 85 | 1003.2 |
| 20260906114059 | 56 | 158 | 0.0 | 2.6 | 0.00 | 0.00 | 0.00 | 85 | 1003.2 |
| 20260906113504 | 57 | 254 | 0.0 | 0.0 | 0.00 | 0.00 | 0.00 | 85 | 1003.1 |
| 20260906113044 | 57 | 254 | 0.0 | 0.0 | 0.00 | 0.00 | 0.00 | 85 | 1003.1 |
| 20260906112544 | 57 | 254 | 0.0 | 0.0 | 0.00 | 0.00 | 0.00 | 85 | 1003.1 |
| 20260906112055 | 57 | 254 | 0.0 | 0.0 | 0.00 | 0.00 | 0.00 | 85 | 1003.1 |
| 20260906111550 | 57 | 254 | 0.0 | 0.0 | 0.00 | 0.00 | 0.00 | 85 | 1003.0 |
| 20260906111049 | 57 | 254 | 0.0 | 0.9 | 0.00 | 0.00 | 0.00 | 85 | 1003.0 |
| 20260906110546 | 57 | 254 | 0.0 | 1.7 | 0.00 | 0.00 | 0.00 | 85 | 1003.0 |
| 20260906110014 | 57 | 254 | 0.9 | 1.7 | 0.00 | 0.00 | 0.00 | 85 | 1003.0 |
| 20260906105535 | 57 | 254 | 0.0 | 1.7 | 0.00 | 0.00 | 0.00 | 85 | 1002.9 |
| 20260906105035 | 57 | 254 | 0.9 | 1.7 | 0.00 | 0.00 | 0.00 | 84 | 1002.9 |
| 20260906104603 | 57 | 254 | 0.0 | 0.9 | 0.00 | 0.00 | 0.00 | 84 | 1003.0 |
| 20260906104009 | 57 | 254 | 0.0 | 0.9 | 0.00 | 0.00 | 0.00 | 84 | 1003.0 |
| 20260906103508 | 57 | 254 | 0.0 | 0.9 | 0.00 | 0.00 | 0.00 | 84 | 1003.1 |
| 20260906103046 | 57 | 254 | 0.0 | 1.7 | 0.00 | 0.00 | 0.00 | 84 | 1003.0 |
| 20260906102553 | 57 | 254 | 0.0 | 2.6 | 0.00 | 0.00 | 0.00 | 84 | 1002.9 |
| 20260906102100 | 57 | 254 | 0.0 | 2.6 | 0.00 | 0.00 | 0.00 | 84 | 1002.9 |
| 20260906101532 | 57 | 254 | 0.0 | 0.9 | 0.00 | 0.00 | 0.00 | 84 | 1002.9 |
| 20260906101038 | 57 | 254 | 0.0 | 0.9 | 0.00 | 0.00 | 0.00 | 84 | 1002.8 |
| 20260906100555 | 57 | 254 | 0.0 | 1.7 | 0.00 | 0.00 | 0.00 | 84 | 1002.8 |
| 20260906100031 | 57 | 254 | 0.0 | 1.7 | 0.00 | 0.00 | 0.00 | 84 | 1002.8 |
| 20260906095528 | 57 | 254 | 0.0 | 2.6 | 0.00 | 0.00 | 0.00 | 84 | 1002.8 |
| 20260906095036 | 57 | 254 | 0.9 | 2.6 | 0.00 | 0.00 | 0.00 | 84 | 1002.8 |
| 20260906094611 | 57 | 254 | 0.0 | 0.9 | 0.00 | 0.00 | 0.00 | 84 | 1002.8 |
| 20260906094004 | 57 | 254 | 0.0 | 0.9 | 0.00 | 0.00 | 0.00 | 84 | 1002.8 |
| 20260906093510 | 57 | 254 | 0.0 | 1.7 | 0.00 | 0.00 | 0.00 | 84 | 1002.7 |
| 20260906093100 | 57 | 254 | 0.0 | 1.7 | 0.00 | 0.00 | 0.00 | 83 | 1002.7 |
| 20260906092600 | 57 | 254 | 0.0 | 0.0 | 0.00 | 0.00 | 0.00 | 83 | 1002.8 |
| 20260906092011 | 57 | 254 | 0.0 | 0.9 | 0.00 | 0.00 | 0.00 | 83 | 1002.8 |
| 20260906091548 | 57 | 254 | 0.0 | 1.7 | 0.00 | 0.00 | 0.00 | 83 | 1002.9 |
| 20260906091056 | 57 | 254 | 0.0 | 1.7 | 0.00 | 0.00 | 0.00 | 83 | 1002.9 |
| 20260906090501 | 58 | 254 | 0.0 | 1.7 | 0.00 | 0.00 | 0.00 | 83 | 1002.8 |
| 20260906090107 | 58 | 254 | 0.9 | 1.7 | 0.00 | 0.01 | 0.00 | 83 | 1002.7 |
| 20260906085549 | 58 | 254 | 0.0 | 0.9 | 0.00 | 0.01 | 0.00 | 83 | 1002.7 |
| 20260906085050 | 58 | 254 | 0.0 | 1.7 | 0.00 | 0.01 | 0.00 | 83 | 1002.7 |
| 20260906084533 | 58 | 254 | 0.0 | 1.7 | 0.00 | 0.01 | 0.00 | 83 | 1002.8 |
| 20260906084036 | 58 | 254 | 0.0 | 0.9 | 0.00 | 0.01 | 0.00 | 83 | 1002.9 |
| 20260906083538 | 58 | 254 | 0.0 | 1.7 | 0.00 | 0.01 | 0.00 | 83 | 1002.8 |
| 20260906083031 | 58 | 254 | 0.0 | 1.7 | 0.00 | 0.01 | 0.00 | 83 | 1002.8 |
| 20260906082526 | 58 | 254 | 0.0 | 1.7 | 0.00 | 0.01 | 0.00 | 83 | 1002.8 |
| 20260906082036 | 58 | 254 | 0.0 | 1.7 | 0.00 | 0.01 | 0.00 | 83 | 1002.8 |
| 20260906081603 | 58 | 254 | 0.0 | 1.7 | 0.00 | 0.01 | 0.00 | 83 | 1002.8 |
| 20260906081020 | 58 | 254 | 0.0 | 0.9 | 0.00 | 0.01 | 0.00 | 83 | 1002.8 |
| 20260906080526 | 58 | 254 | 0.0 | 1.7 | 0.00 | 0.01 | 0.00 | 83 | 1002.8 |
| 20260906080055 | 58 | 254 | 0.0 | 1.7 | 0.00 | 0.01 | 0.00 | 83 | 1002.8 |
| 20260906075558 | 58 | 254 | 0.0 | 0.9 | 0.00 | 0.01 | 0.00 | 83 | 1002.8 |
| 20260906075104 | 58 | 254 | 0.0 | 0.9 | 0.00 | 0.01 | 0.00 | 83 | 1002.8 |
| 20260906074546 | 58 | 254 | 0.0 | 1.7 | 0.00 | 0.01 | 0.00 | 84 | 1002.8 |
| 20260906074038 | 57 | 254 | 0.0 | 1.7 | 0.00 | 0.01 | 0.00 | 84 | 1002.8 |
| 20260906073549 | 57 | 252 | 0.0 | 0.9 | 0.00 | 0.01 | 0.00 | 84 | 1002.9 |
| 20260906073019 | 57 | 252 | 0.0 | 2.6 | 0.00 | 0.01 | 0.00 | 84 | 1003.0 |
| 20260906072524 | 57 | 252 | 0.9 | 2.6 | 0.00 | 0.01 | 0.00 | 84 | 1002.9 |
| 20260906072032 | 57 | 284 | 0.0 | 1.7 | 0.00 | 0.01 | 0.00 | 84 | 1003.0 |
| 20260906071502 | 57 | 284 | 0.0 | 1.7 | 0.00 | 0.01 | 0.00 | 84 | 1003.0 |
| 20260906071006 | 57 | 284 | 0.9 | 2.6 | 0.00 | 0.01 | 0.00 | 84 | 1003.1 |
| 20260906070514 | 57 | 291 | 0.9 | 2.6 | 0.00 | 0.01 | 0.00 | 84 | 1003.0 |
| 20260906070026 | 57 | 292 | 0.0 | 1.7 | 0.00 | 0.01 | 0.01 | 83 | 1003.2 |
| 20260906065535 | 57 | 292 | 0.0 | 1.7 | 0.00 | 0.01 | 0.01 | 83 | 1003.2 |
| 20260906065035 | 57 | 292 | 0.0 | 1.7 | 0.00 | 0.01 | 0.01 | 83 | 1003.2 |
| 20260906064504 | 57 | 292 | 0.9 | 1.7 | 0.00 | 0.01 | 0.01 | 83 | 1003.2 |
| 20260906064013 | 57 | 292 | 0.9 | 1.7 | 0.00 | 0.01 | 0.01 | 83 | 1003.2 |
| 20260906063526 | 57 | 292 | 0.0 | 1.7 | 0.00 | 0.01 | 0.01 | 83 | 1003.2 |
| 20260906063054 | 57 | 292 | 0.0 | 1.7 | 0.00 | 0.01 | 0.01 | 83 | 1003.2 |
| 20260906062557 | 57 | 292 | 0.9 | 1.7 | 0.00 | 0.01 | 0.01 | 83 | 1003.2 |
| 20260906062101 | 57 | 292 | 0.0 | 1.7 | 0.00 | 0.01 | 0.01 | 82 | 1003.2 |
| 20260906061510 | 57 | 292 | 0.0 | 2.6 | 0.00 | 0.01 | 0.01 | 82 | 1003.1 |
| 20260906061018 | 57 | 292 | 1.7 | 2.6 | 0.00 | 0.01 | 0.01 | 82 | 1003.2 |
| 20260906060540 | 57 | 292 | 0.0 | 1.7 | 0.00 | 0.01 | 0.01 | 82 | 1003.3 |
| 20260906060054 | 57 | 292 | 0.0 | 1.7 | 0.00 | 0.01 | 0.01 | 82 | 1003.2 |
| 20260906055600 | 57 | 292 | 0.9 | 2.6 | 0.00 | 0.01 | 0.01 | 82 | 1003.2 |
| 20260906055008 | 57 | 292 | 1.7 | 2.6 | 0.00 | 0.01 | 0.01 | 81 | 1003.2 |
| 20260906054542 | 57 | 292 | 0.9 | 1.7 | 0.00 | 0.01 | 0.01 | 81 | 1003.2 |
| 20260906054042 | 58 | 292 | 0.9 | 2.6 | 0.00 | 0.01 | 0.01 | 81 | 1003.2 |
| 20260906053553 | 58 | 292 | 0.9 | 2.6 | 0.00 | 0.01 | 0.01 | 81 | 1003.3 |
| 20260906053030 | 58 | 296 | 0.0 | 0.9 | 0.00 | 0.01 | 0.01 | 80 | 1003.3 |
| 20260906052539 | 58 | 296 | 0.0 | 1.7 | 0.00 | 0.01 | 0.01 | 80 | 1003.4 |
| 20260906052043 | 58 | 296 | 0.0 | 1.7 | 0.00 | 0.01 | 0.01 | 80 | 1003.4 |
| 20260906051523 | 58 | 296 | 0.9 | 1.7 | 0.00 | 0.01 | 0.01 | 79 | 1003.4 |
| 20260906051024 | 58 | 296 | 0.9 | 2.6 | 0.00 | 0.01 | 0.01 | 79 | 1003.3 |
| 20260906050533 | 58 | 296 | 0.0 | 2.6 | 0.00 | 0.01 | 0.01 | 79 | 1003.4 |
| 20260906050004 | 58 | 297 | 0.9 | 2.6 | 0.00 | 0.01 | 0.01 | 79 | 1003.4 |
| 20260906045556 | 58 | 298 | 0.9 | 2.6 | 0.00 | 0.01 | 0.01 | 79 | 1003.4 |
| 20260906045043 | 58 | 281 | 0.9 | 2.6 | 0.00 | 0.01 | 0.01 | 78 | 1003.5 |
| 20260906044504 | 58 | 235 | 0.9 | 2.6 | 0.00 | 0.01 | 0.01 | 78 | 1003.5 |
| 20260906044053 | 58 | 232 | 0.0 | 2.6 | 0.00 | 0.01 | 0.01 | 77 | 1003.5 |
| 20260906043542 | 58 | 232 | 0.9 | 2.6 | 0.00 | 0.01 | 0.01 | 77 | 1003.5 |
| 20260906043015 | 59 | 223 | 1.7 | 2.6 | 0.00 | 0.01 | 0.01 | 77 | 1003.6 |
| 20260906042602 | 59 | 226 | 0.9 | 2.6 | 0.00 | 0.01 | 0.01 | 76 | 1003.6 |
| 20260906042049 | 59 | 294 | 0.0 | 4.3 | 0.00 | 0.01 | 0.01 | 76 | 1003.7 |
| 20260906041058 | 59 | 258 | 0.0 | 0.9 | 0.00 | 0.01 | 0.01 | 76 | 1003.6 |
| 20260906040609 | 59 | 258 | 0.0 | 1.7 | 0.00 | 0.01 | 0.01 | 75 | 1003.5 |
| 20260906040042 | 59 | 258 | 0.0 | 1.7 | 0.00 | 0.01 | 0.01 | 74 | 1003.4 |
| 20260906035551 | 59 | 258 | 0.0 | 1.7 | 0.00 | 0.01 | 0.01 | 74 | 1003.4 |
| 20260906035056 | 59 | 258 | 0.9 | 1.7 | 0.00 | 0.01 | 0.01 | 74 | 1003.3 |
| 20260906034535 | 60 | 258 | 0.9 | 1.7 | 0.00 | 0.01 | 0.01 | 73 | 1003.4 |
| 20260906034035 | 60 | 258 | 0.9 | 2.6 | 0.00 | 0.01 | 0.01 | 73 | 1003.3 |
| 20260906033544 | 60 | 258 | 0.9 | 2.6 | 0.00 | 0.01 | 0.01 | 73 | 1003.2 |
| 20260906033010 | 60 | 258 | 0.9 | 2.6 | 0.00 | 0.01 | 0.01 | 73 | 1003.2 |
| 20260906032526 | 61 | 258 | 0.9 | 2.6 | 0.00 | 0.01 | 0.01 | 74 | 1003.1 |
| 20260906032032 | 61 | 258 | 0.9 | 2.6 | 0.00 | 0.01 | 0.01 | 73 | 1003.2 |
| 20260906031600 | 61 | 258 | 0.0 | 1.7 | 0.00 | 0.01 | 0.01 | 72 | 1003.1 |
| 20260906031007 | 61 | 258 | 0.0 | 2.6 | 0.00 | 0.01 | 0.01 | 71 | 1003.1 |
| 20260906030514 | 61 | 258 | 0.9 | 2.6 | 0.00 | 0.01 | 0.01 | 71 | 1003.0 |
| 20260906030054 | 62 | 258 | 0.9 | 2.6 | 0.00 | 0.01 | 0.01 | 72 | 1003.0 |
| 20260906025600 | 62 | 258 | 0.9 | 2.6 | 0.00 | 0.01 | 0.01 | 71 | 1003.0 |
| 20260906025020 | 62 | 258 | 0.9 | 2.6 | 0.00 | 0.01 | 0.01 | 70 | 1003.0 |
| 20260906024607 | 62 | 258 | 0.9 | 2.6 | 0.00 | 0.01 | 0.01 | 69 | 1003.0 |
| 20260906024055 | 63 | 258 | 0.0 | 1.7 | 0.00 | 0.01 | 0.01 | 69 | 1003.0 |
| 20260906023558 | 63 | 258 | 0.9 | 2.6 | 0.00 | 0.01 | 0.01 | 69 | 1003.0 |
| 20260906023038 | 63 | 258 | 0.9 | 3.5 | 0.00 | 0.01 | 0.01 | 69 | 1003.0 |
| 20260906022547 | 63 | 258 | 0.9 | 3.5 | 0.00 | 0.01 | 0.01 | 68 | 1003.0 |
| 20260906022052 | 63 | 258 | 1.7 | 3.5 | 0.00 | 0.01 | 0.01 | 68 | 1003.1 |
| 20260906021506 | 64 | 258 | 0.9 | 3.5 | 0.00 | 0.01 | 0.01 | 68 | 1003.0 |
| 20260906021023 | 64 | 263 | 0.9 | 3.5 | 0.00 | 0.01 | 0.01 | 67 | 1003.1 |
| 20260906020530 | 64 | 264 | 0.9 | 2.6 | 0.00 | 0.01 | 0.01 | 66 | 1003.1 |
| 20260906020106 | 64 | 264 | 0.0 | 0.0 | 0.00 | 0.01 | 0.01 | 66 | 1003.1 |
| 20260906015510 | 65 | 264 | 0.0 | 1.7 | 0.00 | 0.01 | 0.01 | 65 | 1003.1 |
| 20260906015022 | 65 | 264 | 0.0 | 1.7 | 0.00 | 0.01 | 0.01 | 64 | 1003.2 |
| 20260906014556 | 65 | 264 | 0.0 | 2.6 | 0.00 | 0.01 | 0.01 | 64 | 1003.1 |
| 20260906014007 | 66 | 264 | 0.9 | 2.6 | 0.00 | 0.01 | 0.01 | 63 | 1003.2 |
| 20260906013517 | 66 | 264 | 0.9 | 2.6 | 0.00 | 0.01 | 0.01 | 63 | 1003.2 |
| 20260906013036 | 67 | 270 | 0.9 | 1.7 | 0.00 | 0.01 | 0.01 | 63 | 1003.3 |
| 20260906012546 | 67 | 270 | 0.0 | 2.6 | 0.00 | 0.01 | 0.01 | 62 | 1003.2 |
| 20260906012049 | 67 | 270 | 0.9 | 3.5 | 0.00 | 0.01 | 0.01 | 61 | 1003.2 |
| 20260906011518 | 68 | 305 | 0.9 | 3.5 | 0.00 | 0.01 | 0.01 | 60 | 1003.2 |
| 20260906011034 | 68 | 283 | 0.9 | 4.3 | 0.00 | 0.01 | 0.01 | 58 | 1003.1 |
| 20260906010539 | 68 | 292 | 0.9 | 4.3 | 0.00 | 0.01 | 0.01 | 59 | 1003.2 |
| 20260906010027 | 68 | 302 | 2.6 | 4.3 | 0.00 | 0.01 | 0.01 | 59 | 1003.1 |
| 20260906005527 | 69 | 323 | 0.9 | 5.2 | 0.00 | 0.01 | 0.01 | 62 | 1003.0 |
| 20260906005034 | 69 | 284 | 2.6 | 5.2 | 0.00 | 0.01 | 0.01 | 64 | 1003.0 |
| 20260906004502 | 69 | 9 | 0.9 | 5.2 | 0.00 | 0.01 | 0.01 | 60 | 1003.0 |
| 20260906004015 | 69 | 15 | 1.7 | 5.2 | 0.00 | 0.01 | 0.01 | 58 | 1003.1 |
| 20260906003522 | 69 | 44 | 3.5 | 5.2 | 0.00 | 0.01 | 0.01 | 59 | 1003.2 |
| 20260906003052 | 69 | 67 | 1.7 | 5.2 | 0.00 | 0.01 | 0.01 | 56 | 1003.2 |
| 20260906002557 | 69 | 42 | 2.6 | 3.5 | 0.00 | 0.01 | 0.01 | 62 | 1003.1 |
| 20260906002005 | 69 | 51 | 0.0 | 2.6 | 0.00 | 0.01 | 0.01 | 60 | 1003.3 |
| 20260906001538 | 69 | 54 | 0.0 | 1.7 | 0.00 | 0.01 | 0.01 | 59 | 1003.2 |
| 20260906001032 | 69 | 40 | 0.0 | 1.7 | 0.00 | 0.01 | 0.01 | 60 | 1003.2 |
| 20260906000539 | 68 | 34 | 0.9 | 3.5 | 0.00 | 0.01 | 0.01 | 59 | 1003.2 |
| 20260906000004 | 68 | 34 | 1.7 | 3.5 | 0.00 | 0.02 | 0.01 | 60 | 1003.1 |
| 20260905235518 | 68 | 45 | 1.7 | 3.5 | 0.00 | 0.02 | 0.01 | 61 | 1003.0 |
| 20260905235025 | 68 | 343 | 1.7 | 3.5 | 0.00 | 0.02 | 0.01 | 61 | 1003.2 |
| 20260905234556 | 68 | 332 | 0.0 | 2.6 | 0.00 | 0.02 | 0.01 | 59 | 1003.2 |
| 20260905234102 | 68 | 332 | 0.9 | 2.6 | 0.00 | 0.02 | 0.01 | 65 | 1003.2 |
| 20260905233502 | 68 | 241 | 0.0 | 3.5 | 0.00 | 0.02 | 0.01 | 61 | 1003.2 |
| 20260905233044 | 68 | 236 | 0.9 | 4.3 | 0.00 | 0.02 | 0.01 | 57 | 1003.3 |
| 20260905232551 | 67 | 325 | 1.7 | 4.3 | 0.00 | 0.02 | 0.01 | 60 | 1003.2 |
| 20260905232057 | 67 | 54 | 0.9 | 3.5 | 0.00 | 0.02 | 0.01 | 61 | 1003.2 |
| 20260905231541 | 68 | 322 | 0.9 | 2.6 | 0.00 | 0.02 | 0.01 | 58 | 1003.3 |
| 20260905231039 | 69 | 133 | 0.0 | 1.7 | 0.00 | 0.02 | 0.01 | 59 | 1003.4 |
| 20260905230549 | 69 | 133 | 0.9 | 5.2 | 0.00 | 0.02 | 0.01 | 57 | 1003.4 |
| 20260905230108 | 69 | 139 | 0.9 | 5.2 | 0.00 | 0.02 | 0.01 | 58 | 1003.5 |
| 20260905225505 | 69 | 190 | 0.9 | 3.5 | 0.00 | 0.02 | 0.01 | 58 | 1003.6 |